カタログに戻る

CZ-6A DEB

運用中SSO
NORAD 54343·DEBRIS·🇨🇳 China

打ち上げ Nov 11, 2022 から Taiyuan Satellite Launch Center

Loading…

次のパス (今後24時間)

TLE

最新Source: Space-Track

元期: Sep 14, 2026, 05:58 UTC

1 54343U 22151CN  26257.24873940  .00000037  00000-0  44416-4 0  9992
2 54343  98.8422 256.9638 0042852  86.0325 274.5743 14.10740432197081

AllMySatでCZ-6A DEBをリアルタイム追跡

Download on the App Store